Time,TemperatureF,DewpointF,PressureIn,WindDirection,WindDirectionDegrees,WindSpeedMPH,WindSpeedGustMPH,Humidity,HourlyPrecipIn,Conditions,Clouds,dailyrainin,SoftwareType,DateUTC
2013-04-03 00:00:00,29.3,13.9,30.14,West,270,2.2,2.2,52,0.00,,,0.00,WUHU216HW,2013-04-03 04:00:00,
2013-04-03 00:01:00,29.3,13.9,30.14,West,270,2.2,2.2,52,0.00,,,0.00,WUHU216HW,2013-04-03 04:01:00,
2013-04-03 00:02:00,29.3,13.9,30.14,West,270,2.2,2.2,52,0.00,,,0.00,WUHU216HW,2013-04-03 04:02:00,
2013-04-03 00:07:00,29.3,13.9,30.14,West,270,2.2,2.2,52,0.00,,,0.00,WUHU216HW,2013-04-03 04:07:00,
2013-04-03 00:30:00,29.5,14.0,30.14,West,270,2.2,2.2,52,0.00,,,0.00,WUHU216HW,2013-04-03 04:30:00,
2013-04-03 00:35:00,29.5,14.0,30.14,West,270,2.2,2.2,52,0.00,,,0.00,WUHU216HW,2013-04-03 04:35:00,
2013-04-03 01:00:00,28.6,13.2,30.13,WNW,293,0.8,0.8,52,0.00,,,0.00,WUHU216HW,2013-04-03 05:00:00,
2013-04-03 01:05:00,28.6,13.2,30.13,WNW,293,0.8,0.8,52,0.00,,,0.00,WUHU216HW,2013-04-03 05:05:00,
2013-04-03 01:30:00,28.4,13.9,30.14,NW,315,0.0,0.0,54,0.00,,,0.00,WUHU216HW,2013-04-03 05:30:00,
2013-04-03 01:35:00,28.4,13.9,30.14,NW,315,0.0,0.0,54,0.00,,,0.00,WUHU216HW,2013-04-03 05:35:00,
2013-04-03 02:00:00,27.5,13.4,30.14,West,270,0.0,0.0,55,0.00,,,0.00,WUHU216HW,2013-04-03 06:00:00,
2013-04-03 02:05:00,27.5,13.4,30.14,West,270,0.0,0.0,55,0.00,,,0.00,WUHU216HW,2013-04-03 06:05:00,
2013-04-03 02:30:00,27.7,14.9,30.14,NW,315,1.4,1.4,58,0.00,,,0.00,WUHU216HW,2013-04-03 06:30:00,
2013-04-03 02:35:00,27.7,14.9,30.14,NW,315,1.4,1.4,58,0.00,,,0.00,WUHU216HW,2013-04-03 06:35:00,
2013-04-03 03:00:00,27.2,14.7,30.14,WNW,293,2.2,2.2,59,0.00,,,0.00,WUHU216HW,2013-04-03 07:00:00,
2013-04-03 03:05:00,27.2,14.7,30.14,WNW,293,2.2,2.2,59,0.00,,,0.00,WUHU216HW,2013-04-03 07:05:00,
2013-04-03 03:30:00,27.5,15.0,30.14,WNW,293,2.2,2.2,59,0.00,,,0.00,WUHU216HW,2013-04-03 07:30:00,
2013-04-03 03:35:00,27.5,15.0,30.14,WNW,293,2.2,2.2,59,0.00,,,0.00,WUHU216HW,2013-04-03 07:35:00,
2013-04-03 04:00:00,27.0,15.7,30.15,NW,315,2.2,2.2,62,0.00,,,0.00,WUHU216HW,2013-04-03 08:00:00,
2013-04-03 04:05:00,27.0,15.7,30.15,NW,315,2.2,2.2,62,0.00,,,0.00,WUHU216HW,2013-04-03 08:05:00,
2013-04-03 04:30:00,26.3,15.3,30.15,NW,315,2.6,2.6,63,0.00,,,0.00,WUHU216HW,2013-04-03 08:30:00,
2013-04-03 04:35:00,26.3,15.3,30.15,NW,315,2.6,2.6,63,0.00,,,0.00,WUHU216HW,2013-04-03 08:35:00,
2013-04-03 05:00:00,26.8,16.2,30.16,NW,315,0.8,0.8,64,0.00,,,0.00,WUHU216HW,2013-04-03 09:00:00,
2013-04-03 05:05:00,26.8,16.2,30.16,NW,315,0.8,0.8,64,0.00,,,0.00,WUHU216HW,2013-04-03 09:05:00,
2013-04-03 05:30:00,26.3,16.0,30.17,NNW,338,2.2,2.2,65,0.00,,,0.00,WUHU216HW,2013-04-03 09:30:00,
2013-04-03 05:35:00,26.3,16.0,30.17,NNW,338,2.2,2.2,65,0.00,,,0.00,WUHU216HW,2013-04-03 09:35:00,
2013-04-03 06:00:00,25.2,15.4,30.18,NNW,338,0.8,0.8,66,0.00,,,0.00,WUHU216HW,2013-04-03 10:00:00,
2013-04-03 06:05:00,25.2,15.4,30.18,NNW,338,0.8,0.8,66,0.00,,,0.00,WUHU216HW,2013-04-03 10:05:00,
2013-04-03 06:30:00,25.6,16.7,30.20,NW,315,2.2,2.2,69,0.00,,,0.00,WUHU216HW,2013-04-03 10:30:00,
2013-04-03 06:35:00,25.6,16.7,30.20,NW,315,2.2,2.2,69,0.00,,,0.00,WUHU216HW,2013-04-03 10:35:00,
2013-04-03 07:00:00,24.7,15.8,30.22,NW,315,2.2,2.2,69,0.00,,,0.00,WUHU216HW,2013-04-03 11:00:00,
2013-04-03 07:05:00,24.7,15.8,30.22,NW,315,2.2,2.2,69,0.00,,,0.00,WUHU216HW,2013-04-03 11:05:00,
2013-04-03 07:30:00,25.4,17.3,30.23,NW,315,4.0,4.0,71,0.00,,,0.00,WUHU216HW,2013-04-03 11:30:00,
2013-04-03 07:35:00,25.4,17.3,30.23,NW,315,4.0,4.0,71,0.00,,,0.00,WUHU216HW,2013-04-03 11:35:00,
2013-04-03 08:00:00,26.3,17.5,30.23,NW,315,1.4,1.4,69,0.00,,,0.00,WUHU216HW,2013-04-03 12:00:00,
2013-04-03 08:05:00,26.3,17.5,30.23,NW,315,1.4,1.4,69,0.00,,,0.00,WUHU216HW,2013-04-03 12:05:00,
2013-04-03 08:30:00,27.2,16.9,30.24,WNW,293,1.4,1.4,65,0.00,,,0.00,WUHU216HW,2013-04-03 12:30:00,
2013-04-03 08:35:00,27.2,16.9,30.24,WNW,293,1.4,1.4,65,0.00,,,0.00,WUHU216HW,2013-04-03 12:35:00,
2013-04-03 09:00:00,28.4,15.6,30.24,NW,315,4.0,4.0,58,0.00,,,0.00,WUHU216HW,2013-04-03 13:00:00,
2013-04-03 09:05:00,28.4,15.6,30.24,NW,315,4.0,4.0,58,0.00,,,0.00,WUHU216HW,2013-04-03 13:05:00,
2013-04-03 09:30:00,29.5,14.5,30.25,NW,315,9.0,9.0,53,0.00,,,0.00,WUHU216HW,2013-04-03 13:30:00,
2013-04-03 09:35:00,29.5,14.5,30.25,NW,315,9.0,9.0,53,0.00,,,0.00,WUHU216HW,2013-04-03 13:35:00,
2013-04-03 10:00:00,30.6,13.7,30.26,NW,315,10.8,10.8,49,0.00,,,0.00,WUHU216HW,2013-04-03 14:00:00,
2013-04-03 10:05:00,30.6,13.7,30.26,NW,315,10.8,10.8,49,0.00,,,0.00,WUHU216HW,2013-04-03 14:05:00,
2013-04-03 10:30:00,32.2,13.2,30.27,West,270,11.6,11.6,45,0.00,,,0.00,WUHU216HW,2013-04-03 14:30:00,
2013-04-03 10:35:00,32.2,13.2,30.27,West,270,11.6,11.6,45,0.00,,,0.00,WUHU216HW,2013-04-03 14:35:00,
2013-04-03 11:00:00,33.8,13.6,30.28,WNW,293,13.4,13.4,43,0.00,,,0.00,WUHU216HW,2013-04-03 15:00:00,
2013-04-03 11:05:00,33.8,13.6,30.28,WNW,293,13.4,13.4,43,0.00,,,0.00,WUHU216HW,2013-04-03 15:05:00,
2013-04-03 11:30:00,35.1,13.2,30.28,NW,315,8.0,8.0,40,0.00,,,0.00,WUHU216HW,2013-04-03 15:30:00,
2013-04-03 11:35:00,35.1,13.2,30.28,NW,315,8.0,8.0,40,0.00,,,0.00,WUHU216HW,2013-04-03 15:35:00,
2013-04-03 12:00:00,35.6,13.1,30.28,WNW,293,5.4,5.4,39,0.00,,,0.00,WUHU216HW,2013-04-03 16:00:00,
2013-04-03 12:05:00,35.6,13.1,30.28,WNW,293,5.4,5.4,39,0.00,,,0.00,WUHU216HW,2013-04-03 16:05:00,
2013-04-03 12:30:00,36.2,12.9,30.28,WNW,293,7.2,7.2,38,0.00,,,0.00,WUHU216HW,2013-04-03 16:30:00,
2013-04-03 12:35:00,36.2,12.9,30.28,WNW,293,7.2,7.2,38,0.00,,,0.00,WUHU216HW,2013-04-03 16:35:00,
2013-04-03 13:00:00,36.9,13.5,30.27,NNW,338,11.2,11.2,38,0.00,,,0.00,WUHU216HW,2013-04-03 17:00:00,
2013-04-03 13:05:00,36.9,13.5,30.27,NNW,338,11.2,11.2,38,0.00,,,0.00,WUHU216HW,2013-04-03 17:05:00,
2013-04-03 13:30:00,36.7,15.7,30.28,WNW,293,7.2,7.2,42,0.00,,,0.00,WUHU216HW,2013-04-03 17:30:00,
2013-04-03 13:35:00,36.7,15.7,30.28,WNW,293,7.2,7.2,42,0.00,,,0.00,WUHU216HW,2013-04-03 17:35:00,
2013-04-03 14:00:00,35.3,17.5,30.28,NW,315,6.2,6.2,48,0.00,,,0.00,WUHU216HW,2013-04-03 18:00:00,
2013-04-03 14:05:00,35.3,17.5,30.28,NW,315,6.2,6.2,48,0.00,,,0.00,WUHU216HW,2013-04-03 18:05:00,
2013-04-03 14:10:00,35.3,17.5,30.28,NW,315,6.2,6.2,48,0.00,,,0.00,WUHU216HW,2013-04-03 18:10:00,
2013-04-03 14:30:00,35.6,20.6,30.29,NW,315,13.4,13.4,54,0.00,,,0.00,WUHU216HW,2013-04-03 18:30:00,
2013-04-03 14:35:00,35.6,20.6,30.29,NW,315,13.4,13.4,54,0.00,,,0.00,WUHU216HW,2013-04-03 18:35:00,
2013-04-03 15:00:00,36.4,18.6,30.29,WNW,293,11.2,11.2,48,0.00,,,0.00,WUHU216HW,2013-04-03 19:00:00,
2013-04-03 15:05:00,36.4,18.6,30.29,WNW,293,11.2,11.2,48,0.00,,,0.00,WUHU216HW,2013-04-03 19:05:00,
2013-04-03 15:30:00,36.5,13.2,30.29,NW,315,15.6,15.6,38,0.00,,,0.00,WUHU216HW,2013-04-03 19:30:00,
2013-04-03 15:35:00,36.5,13.2,30.29,NW,315,15.6,15.6,38,0.00,,,0.00,WUHU216HW,2013-04-03 19:35:00,
2013-04-03 16:00:00,35.8,11.9,30.30,NW,315,13.4,13.4,37,0.00,,,0.00,WUHU216HW,2013-04-03 20:00:00,
2013-04-03 16:05:00,35.8,11.9,30.30,NW,315,13.4,13.4,37,0.00,,,0.00,WUHU216HW,2013-04-03 20:05:00,
2013-04-03 16:30:00,37.1,10.4,30.31,West,270,9.0,9.0,33,0.00,,,0.00,WUHU216HW,2013-04-03 20:30:00,
2013-04-03 16:35:00,37.1,10.4,30.31,West,270,9.0,9.0,33,0.00,,,0.00,WUHU216HW,2013-04-03 20:35:00,
2013-04-03 17:00:00,36.5,11.3,30.32,NNW,338,7.6,7.6,35,0.00,,,0.00,WUHU216HW,2013-04-03 21:00:00,
2013-04-03 17:05:00,36.5,11.3,30.32,NNW,338,7.6,7.6,35,0.00,,,0.00,WUHU216HW,2013-04-03 21:05:00,
2013-04-03 17:30:00,36.4,11.7,30.34,NW,315,9.4,9.4,36,0.00,,,0.00,WUHU216HW,2013-04-03 21:30:00,
2013-04-03 17:35:00,36.4,11.7,30.34,NW,315,9.4,9.4,36,0.00,,,0.00,WUHU216HW,2013-04-03 21:35:00,
2013-04-03 18:00:00,35.6,11.7,30.34,West,270,4.0,4.0,37,0.00,,,0.00,WUHU216HW,2013-04-03 22:00:00,
2013-04-03 18:05:00,35.6,11.7,30.34,West,270,4.0,4.0,37,0.00,,,0.00,WUHU216HW,2013-04-03 22:05:00,
2013-04-03 18:30:00,36.4,11.1,30.36,West,270,6.2,6.2,35,0.00,,,0.00,WUHU216HW,2013-04-03 22:30:00,
2013-04-03 18:35:00,36.4,11.1,30.36,West,270,6.2,6.2,35,0.00,,,0.00,WUHU216HW,2013-04-03 22:35:00,
2013-04-03 19:00:00,36.4,11.7,30.36,NW,315,2.6,2.6,36,0.00,,,0.00,WUHU216HW,2013-04-03 23:00:00,
2013-04-03 19:05:00,36.4,11.7,30.36,NW,315,2.6,2.6,36,0.00,,,0.00,WUHU216HW,2013-04-03 23:05:00,
2013-04-03 19:30:00,33.8,11.4,30.37,NNW,338,0.8,0.8,39,0.00,,,0.00,WUHU216HW,2013-04-03 23:30:00,
2013-04-03 19:35:00,33.8,11.4,30.37,NNW,338,0.8,0.8,39,0.00,,,0.00,WUHU216HW,2013-04-03 23:35:00,
2013-04-03 20:00:00,32.0,11.4,30.36,NW,315,0.8,0.8,42,0.00,,,0.00,WUHU216HW,2013-04-04 00:00:00,
2013-04-03 20:05:00,32.0,11.4,30.36,NW,315,0.8,0.8,42,0.00,,,0.00,WUHU216HW,2013-04-04 00:05:00,
2013-04-03 20:30:00,30.4,11.0,30.37,North,0,0.0,0.0,44,0.00,,,0.00,WUHU216HW,2013-04-04 00:30:00,
2013-04-03 20:35:00,30.4,11.0,30.37,North,0,0.0,0.0,44,0.00,,,0.00,WUHU216HW,2013-04-04 00:35:00,
2013-04-03 20:59:00,28.8,10.5,30.36,SE,135,1.8,1.8,46,0.00,,,0.00,WUHU216HW,2013-04-04 00:59:00,
2013-04-03 21:05:00,28.8,10.5,30.36,SE,135,0.8,1.8,46,0.00,,,0.00,WUHU216HW,2013-04-04 01:05:00,
2013-04-03 21:30:00,27.7,11.5,30.35,SE,135,0.0,0.0,50,0.00,,,0.00,WUHU216HW,2013-04-04 01:30:00,
2013-04-03 21:35:00,27.7,11.5,30.35,SE,135,0.0,0.0,50,0.00,,,0.00,WUHU216HW,2013-04-04 01:35:00,
2013-04-03 22:00:00,26.3,10.5,30.34,SE,135,0.0,0.0,51,0.00,,,0.00,WUHU216HW,2013-04-04 02:00:00,
2013-04-03 22:05:00,26.3,10.5,30.34,SE,135,0.0,0.0,51,0.00,,,0.00,WUHU216HW,2013-04-04 02:05:00,
2013-04-03 22:30:00,25.0,11.1,30.34,SW,225,0.0,0.0,55,0.00,,,0.00,WUHU216HW,2013-04-04 02:30:00,
2013-04-03 22:35:00,25.0,11.1,30.34,SW,225,0.0,0.0,55,0.00,,,0.00,WUHU216HW,2013-04-04 02:35:00,
2013-04-03 23:00:00,24.7,10.7,30.33,SE,135,0.0,0.0,55,0.00,,,0.00,WUHU216HW,2013-04-04 03:00:00,
2013-04-03 23:05:00,24.7,10.7,30.33,SE,135,0.0,0.0,55,0.00,,,0.00,WUHU216HW,2013-04-04 03:05:00,
2013-04-03 23:30:00,23.8,10.3,30.33,SE,135,0.0,0.0,56,0.00,,,0.00,WUHU216HW,2013-04-04 03:30:00,
2013-04-03 23:35:00,23.8,10.3,30.33,SE,135,0.0,0.0,56,0.00,,,0.00,WUHU216HW,2013-04-04 03:35:00,